Tracking 19847 objects as of 17-Sep-2019
HD Live streaming from Space Station
objects crossing your sky now

FENGYUN 1C DEB

Track FENGYUN 1C DEB now!
10-day predictions


NORAD ID: 31012
Int'l Code: 1999-025BDE
Perigee: 752.3 km
Apogee: 873.4 km
Inclination: 99.0 °
Period: 101.0 minutes
Semi major axis: 7183 km
RCS: 0.0146 m2 (small)
Launch date: May 10, 1999
Source: People's Republic of China (PRC)
Launch site: Taiyaun Space Center, China (TSC)

Note: This is SATELLITE DEBRIS
aabbcc
Your satellite tracking list
Your tracking list is empty




NASA's NSSDC Master Catalog

Two Line Element Set (TLE):
1 31012U 99025BDE 19258.93929512 +.00000021 +00000-0 +27827-4 0  9990
2 31012 099.0482 054.8595 0084317 347.7395 135.2807 14.25828622652456
Source of the keplerian elements: AFSPC